Content
SEND FEEDBACK

Daily
Averages
Monthly
Summary
United States of America

MOORESVILLE, ALABAMA


Home > North America > United States > Alabama
Elevation: 57 feet     Latitude: 34 37N     Longitude: 086 58W

WEATHER
 
SELECT A DAY
Number of Records: 181,395;   Date Range: 10/23/96 - 7/29/14
 
SHARE

PRINT THIS DATA

[ ← Previous Day ]
WEATHER ALMANAC - JANUARY 31, 2013
[ Next Day → ]
[ °C ]   °F
Weather ElementAverageHighLow
Temperature38.9 °F48.9 °F (3:53 pm)32 °F (6:53 am)
Dewpoint25.2 °F27 °F (11:53 am)23 °F (3:53 am)
Humidity59.6 %80 % (7:12 am)36 % (4:53 pm)
Barometer30.12 in30.20 in (10:53 am)30.02 in (1:53 am)
Wind Speed11.7 mph18.4 mph (1:53 am)
Wind Gust26.5 mph (1:53 am)
Weather ElementAverage
Visibility10 mi
Wind DirectionWSW (258.5 °)

Weather ElementTotal
Precipitation---
Heating Degree Days24.6 (Base 65)
Averaged from 27 records on January 31, 2013
WEATHER CONDITIONS BREAKOUT
WIND DIRECTION BREAKOUT
WEATHER BY HOUR - JANUARY 31, 2013
[ °C ]   °F
Local TimeTemperatureDewpointHumidityBarometerVisibilityWind DirectionWind SpeedGust SpeedPrecipitationEventsConditions
1:53 AM36.0 °F24.1 °F62 %30.02 in10.0 miWNW (290°)18.4 mph26.5 mphOvercast
2:53 AM35.1 °F24.1 °F64 %30.02 in10.0 miWNW (300°)11.5 mphMostly Cloudy
3:53 AM33.1 °F23.0 °F66 %30.03 in10.0 miNW (310°)9.2 mphMostly Cloudy
4:53 AM33.1 °F24.1 °F70 %30.05 in10.0 miWSW (250°)10.4 mphPartly Cloudy
5:25 AM33.8 °F24.8 °F70 %30.07 in10.0 miWSW (250°)13.8 mphMostly Cloudy
5:41 AM33.8 °F24.8 °F70 %30.07 in10.0 miWSW (250°)12.7 mph20.7 mphScattered Clouds
6:53 AM32.0 °F25.0 °F75 %30.11 in10.0 miWSW (240°)9.2 mphMostly Cloudy
7:01 AM32.0 °F24.8 °F75 %30.11 in10.0 miWSW (250°)10.4 mphScattered Clouds
7:12 AM32.0 °F26.6 °F80 %30.10 in10.0 miWest (260°)9.2 mphMostly Cloudy
7:53 AM32.0 °F25.0 °F75 %30.15 in10.0 miWest (260°)18.4 mph23.0 mphMostly Cloudy
8:03 AM32.0 °F24.8 °F75 %30.15 in10.0 miWSW (250°)17.3 mphScattered Clouds
8:14 AM33.8 °F24.8 °F70 %30.17 in10.0 miWest (270°)13.8 mph24.2 mphMostly Cloudy
9:04 AM33.8 °F24.8 °F70 %30.16 in10.0 miWNW (290°)17.3 mph23.0 mphScattered Clouds
9:53 AM36.0 °F25.0 °F64 %30.18 in10.0 miWest (270°)11.5 mphClear
10:53 AM37.9 °F26.1 °F62 %30.20 in10.0 miWest (270°)10.4 mphClear
11:53 AM41.0 °F27.0 °F57 %30.18 in10.0 miWest (270°)10.4 mphClear
12:53 PM44.1 °F25.0 °F47 %30.15 in10.0 miWNW (300°)10.4 mphClear
1:53 PM46.9 °F25.0 °F42 %30.14 in10.0 miWNW (300°)12.7 mphClear
2:53 PM48.0 °F26.1 °F42 %30.12 in10.0 miWNW (290°)9.2 mphClear
3:53 PM48.9 °F24.1 °F38 %30.11 in10.0 miWSW (250°)11.5 mphClear
4:53 PM48.9 °F23.0 °F36 %30.09 in10.0 miSW (220°)15.0 mph18.4 mphClear
5:53 PM46.0 °F25.0 °F44 %30.12 in10.0 miSW (230°)8.1 mphClear
6:53 PM45.0 °F26.1 °F48 %30.13 in10.0 miSW (220°)6.9 mphClear
7:53 PM44.1 °F27.0 °F51 %30.13 in10.0 miSSW (210°)9.2 mphClear
8:53 PM43.0 °F27.0 °F53 %30.15 in10.0 miSW (230°)8.1 mphClear
9:53 PM43.0 °F27.0 °F53 %30.15 in10.0 miSW (220°)9.2 mphClear
10:53 PM45.0 °F27.0 °F49 %30.14 in10.0 miSW (230°)11.5 mphMostly Cloudy
Hourly data recorded from KDCU, located miles away from Mooresville, Alabama







STORIES FROM OUR PARTNERS